Regional Weather Roundup
Issued by NWS

Home | Current Version | Previous Version | Graphics & Text | Print | Product List | Glossary On
Versions: 1 2 3 4 5 6 7 8 9 10 11 12 13 14 15 16 17 18 19 20 21 22 23 24 25 26 27 28 29 30 31 32 33 34 35 36 37 38 39 40 41 42 43 44 45 46 47 48
000
ASUS45 KBOU 181110
RWRCO

WEATHER ROUNDUP FOR COLORADO
NATIONAL WEATHER SERVICE DENVER/BOULDER CO
500 AM MDT WED APR 18 2018

NOTE: "FAIR" INDICATES FEW OR NO CLOUDS BELOW 12000 FEET WITH NO
SIGNIFICANT WEATHER AND/OR OBSTRUCTIONS TO VISIBILITY.

COZ001>005-013-030-031-181200-
...NORTHWEST COLORADO...

CITY           SKY/WX    TMP DP  RH WIND       PRES   REMARKS
CRAIG          FAIR      18  14  84 E3        30.28R
HAYDEN         FAIR      19  13  77 NE7       30.29R WCI  10
MEEKER         FAIR      19  13  77 E7        30.29R WCI  10
RANGELY        FAIR      20  13  75 E6        30.29R WCI  12
RABBIT EARS PA CLOUDY    12   9  85 W10G16    30.17R WCI  -1
STEAMBOAT SPGS FAIR      18  14  84 CALM      30.27R
WALDEN         FAIR      19   9  63 CALM      30.21R
$$

COZ006>008-011-181200-
...WEST CENTRAL VALLEYS...

CITY           SKY/WX    TMP DP  RH WIND       PRES   REMARKS
GRAND JUNCTION FAIR      28  17  63 CALM      30.27R
MONTROSE       FAIR      25  11  55 SE10      30.30R WCI  15
EAGLE          FAIR      18  15  88 E5        30.32R WCI  11
RIFLE          FAIR      24  21  88 NE5       30.30R WCI  18
DELTA          FAIR      30  15  53 CALM      30.28R
NUCLA          FAIR      27   3  36 E10       30.29R WCI  17
$$

COZ017>023-064>068-181200-
...SOUTHWEST COLORADO...

CITY           SKY/WX    TMP DP  RH WIND       PRES   REMARKS
DURANGO        FAIR      17   0  47 NE6       30.17R WCI   9
CORTEZ         FAIR      27   1  32 E9        30.21R WCI  18
PAGOSA SPRINGS FAIR      21   2  45 CALM      30.17R
TELLURIDE      FAIR      20   2  46 CALM      30.24R
WOLF CREEK PAS FAIR      12 -15  29 NW3       30.22R
$$

COZ009-010-012-014-032>034-037-058>063-181200-
...CENTRAL COLORADO...

CITY           SKY/WX    TMP DP  RH WIND       PRES   REMARKS
ASPEN          FAIR      15  10  80 S7        30.24S WCI   5
BUENA VISTA    FAIR      25   3  39 NW20G29   30.17S WCI  10
COPPER MTN     NOT AVBL
BERTHOUD PASS  FAIR       1  -8  66 NW49      29.97F WCI -29
COTTONWOOD PAS FAIR      27   0  31 N7G18     30.13S WCI  19
GUNNISON       FAIR      18   8  65 CALM      30.24R
GRANBY         CLOUDY    22  12  64 W9        30.24R WCI  12
KREMMLING      FAIR      30  14  51 W8        30.26R WCI  23
LEADVILLE      FAIR       6   2  83 N6        30.18R WCI  -4
SALIDA         FAIR      29   4  35 NW9       30.25R WCI  20
SUNLIGHT       FAIR       9   5  85 NE3       30.25R
WILKERSON PASS FAIR      12  -4  48 N13G24    30.12R WCI  -3
$$

COZ069>075-181200-
...SAN LUIS VALLEY/SANGRE DE CRISTO MOUNTAINS...

CITY           SKY/WX    TMP DP  RH WIND       PRES   REMARKS
ALAMOSA        FAIR      19   0  43 W9        30.19R WCI   8
DEL NORTE      FAIR      17  -3  42 W6        30.20R WCI   8
LA VETA PASS   FAIR      21  -8  27 S15G25    30.24R WCI   8
SAGUACHE       NOT AVBL
$$

COZ035-036-038>040-181200-
...NORTHERN COLORADO FRONT RANGE...

CITY           SKY/WX    TMP DP  RH WIND       PRES   REMARKS
DENVER INTL AP FAIR      32  13  45 W10       30.12R WCI  24
AURORA         CLEAR     26  14  61 SW6       30.14R WCI  19
FRONT RANGE AP FAIR      28  16  61 W8        30.13R WCI  19
ERIE MUNI ARPT FAIR      36   8  32 W10       30.17R
BOULDER MUN AP FAIR      37   5  25 NW8G16    30.11R
CENTENNIAL     FAIR      34   9  35 W9        30.14R WCI  27
BROOMFIELD     FAIR      34   9  35 W6        30.13R WCI  29
FORT COLLINS   FAIR      37  10  32 NW12      30.12S
LONGMONT       FAIR      38   7  28 NW6       30.14S
$$

COZ041-046-047-076>085-087-088-181200-
...PIKES PEAK/PALMER DIVIDE AND SOUTHERN FOOTHILLS...

CITY           SKY/WX    TMP DP  RH WIND       PRES   REMARKS
COLO. SPRINGS  FAIR      31   7  36 NW7       30.15R WCI  24
A. F. ACADEMY  FAIR      27   4  38 CALM      30.14R
SCHRIEVER AFB  NOT AVBL
CHEYENNE MTN   FAIR      30   1  29 W5        30.09R WCI  26
ELLICOTT         N/A    N/A N/A N/A NE8       30.14R
FALCON         FAIR      29   2  32 NW12      30.16R WCI  19
FORT CARSON    FAIR      31   6  34 W8        30.14R WCI  24
LIMON          FAIR      23  18  81 NW3       30.12R
MONUMENT HILL  FAIR      21   5  49 W7        30.15R WCI  13
CANON CITY     FAIR      36   7  30 W9        30.16R
WALSENBURG     NOT AVBL
TRINIDAD       FAIR      26  12  55 NW6       30.17R WCI  19
$$

COZ042>045-048>051-090-091-181200-
...NORTHEAST COLORADO...

CITY           SKY/WX    TMP DP  RH WIND       PRES   REMARKS
GREELEY ARPT   FAIR      33  13  43 NW9       30.14R WCI  25
AKRON          FAIR      29  20  69 NW17      30.08R WCI  17
BURLINGTON     FAIR      27  22  81 W9        30.10R WCI  18
WRAY           FAIR      32  27  80 NW9       30.07R WCI  24
YUMA           FAIR      32  23  69 NW17      30.08R WCI  21
STERLING       FAIR      34  23  64 NW17G24   30.08R WCI  23
HOLYOKE        FAIR      36  28  75 NW14G20   30.06R
FORT MORGAN    FAIR      36  14  41 NW28G35   30.12R
$$

COZ086-089-092>099-181200-
...SOUTHEAST COLORADO...

CITY           SKY/WX    TMP DP  RH WIND       PRES   REMARKS
PUEBLO         FAIR      36   8  31 N12       30.15R
LA JUNTA       FAIR      36  14  40 N14       30.14R
LAMAR          FAIR      36  19  50 N13       30.12R
SPRINGFIELD      N/A     30  18  60 N12       30.11R WCI  20
$$




USA.gov is the U.S. government's official web portal to all federal, state and local government web resources and services.